JES1255 SABE-SACO

Flight info

Callsign JES1255
Flight time 1h 5m
Altitude 34000
Route ATOVO4B ATOVO UW5 ASISA ASISA1Q
Aircraft A320/M-SDE3FGHIRWY/LB1

Departure

Time 2026-05-03 20:51
Airport Aeroparque Jorge Newbery (SABE)

Arrival

Time 2026-05-03 21:56
Airport Ingeniero Aeronáutico Ambrosio L.V. Taravella International Airport (SACO)
Time Latitude Longitude Altitude Speed Heading
2026-05-03 20:15 -34.55740 -58.41363 54 ft 0 kts 34°
2026-05-03 20:35 -34.55747 -58.41368 27 ft 4 kts 31°
2026-05-03 20:35 -34.55770 -58.41380 27 ft 4 kts 355°
2026-05-03 20:36 -34.55787 -58.41370 27 ft 3 kts 302°
2026-05-03 20:36 -34.55794 -58.41357 27 ft 0 kts 302°
2026-05-03 20:40 -34.55787 -58.41371 27 ft 4 kts 303°
2026-05-03 20:40 -34.55762 -58.41419 27 ft 8 kts 301°
2026-05-03 20:41 -34.55730 -58.41489 27 ft 11 kts 296°
2026-05-03 20:41 -34.55742 -58.41560 27 ft 10 kts 217°
2026-05-03 20:41 -34.55779 -58.41587 27 ft 9 kts 201°
2026-05-03 20:41 -34.55822 -58.41542 26 ft 10 kts 117°
2026-05-03 20:42 -34.55857 -58.41461 27 ft 12 kts 118°
2026-05-03 20:42 -34.55897 -58.41367 27 ft 13 kts 117°
2026-05-03 20:42 -34.55945 -58.41265 27 ft 14 kts 127°
2026-05-03 20:42 -34.55998 -58.41172 27 ft 14 kts 125°
2026-05-03 20:43 -34.56059 -58.41075 27 ft 15 kts 127°
2026-05-03 20:43 -34.56123 -58.40972 27 ft 14 kts 128°
2026-05-03 20:43 -34.56155 -58.40867 27 ft 12 kts 76°
2026-05-03 20:43 -34.56195 -58.40775 27 ft 13 kts 125°
2026-05-03 20:44 -34.56250 -58.40677 27 ft 15 kts 123°
2026-05-03 20:44 -34.56299 -58.40586 27 ft 2 kts 124°
2026-05-03 20:44 -34.56302 -58.40582 27 ft 2 kts 124°
2026-05-03 20:44 -34.56312 -58.40563 27 ft 4 kts 124°
2026-05-03 20:45 -34.56332 -58.40530 27 ft 6 kts 125°
2026-05-03 20:45 -34.56351 -58.40508 27 ft 0 kts 138°
2026-05-03 20:46 -34.56368 -58.40489 27 ft 6 kts 139°
2026-05-03 20:46 -34.56403 -58.40453 27 ft 5 kts 140°
2026-05-03 20:46 -34.56404 -58.40452 27 ft 0 kts 140°
2026-05-03 20:48 -34.56405 -58.40452 27 ft 0 kts 140°
2026-05-03 20:48 -34.56419 -58.40437 27 ft 6 kts 140°
2026-05-03 20:48 -34.56468 -58.40386 27 ft 11 kts 137°
2026-05-03 20:49 -34.56534 -58.40375 29 ft 12 kts 211°
2026-05-03 20:49 -34.56548 -58.40456 27 ft 9 kts 303°
2026-05-03 20:49 -34.56531 -58.40485 28 ft 0 kts 304°
2026-05-03 20:49 -34.56530 -58.40487 28 ft 1 kts 304°
2026-05-03 20:50 -34.56503 -58.40537 28 ft 29 kts 303°
2026-05-03 20:50 -34.56251 -58.40988 27 ft 97 kts 304°
2026-05-03 20:50 -34.55771 -58.41844 30 ft 146 kts 307°
2026-05-03 20:50 -34.55215 -58.42886 600 ft 144 kts 307°
2026-05-03 20:51 -34.54630 -58.43859 1198 ft 145 kts 316°
2026-05-03 20:51 -34.53828 -58.44722 1557 ft 160 kts 327°
2026-05-03 20:51 -34.52809 -58.45377 1902 ft 175 kts 341°
2026-05-03 20:51 -34.51557 -58.45747 2145 ft 198 kts 352°
2026-05-03 20:52 -34.50085 -58.45719 2355 ft 228 kts 11°
2026-05-03 20:52 -34.48554 -58.44931 2906 ft 249 kts 30°
2026-05-03 20:52 -34.47090 -58.43753 3745 ft 255 kts 29°
2026-05-03 20:52 -34.45561 -58.42590 4539 ft 263 kts 27°
2026-05-03 20:53 -34.43973 -58.41428 5358 ft 269 kts 27°
2026-05-03 20:53 -34.42349 -58.40252 6193 ft 275 kts 27°
2026-05-03 20:53 -34.40656 -58.39155 6968 ft 276 kts 14°
2026-05-03 20:53 -34.38779 -58.38845 7729 ft 272 kts 351°
2026-05-03 20:54 -34.36983 -58.39473 8520 ft 268 kts 328°
2026-05-03 20:54 -34.34664 -58.42847 10139 ft 267 kts 294°
2026-05-03 20:54 -34.33859 -58.44930 10563 ft 284 kts 294°
2026-05-03 20:55 -34.32988 -58.47173 10739 ft 307 kts 294°
2026-05-03 20:55 -34.32053 -58.49570 11109 ft 320 kts 294°
2026-05-03 20:55 -34.31091 -58.52025 11719 ft 326 kts 294°
2026-05-03 20:55 -34.30112 -58.54515 12348 ft 330 kts 294°
2026-05-03 20:56 -34.29122 -58.57033 12982 ft 334 kts 294°
2026-05-03 20:56 -34.28118 -58.59584 13619 ft 338 kts 293°
2026-05-03 20:56 -34.27102 -58.62160 14214 ft 341 kts 293°
2026-05-03 20:56 -34.26074 -58.64763 14797 ft 344 kts 293°
2026-05-03 20:57 -34.25041 -58.67380 15382 ft 347 kts 293°
2026-05-03 20:57 -34.23999 -58.70021 15962 ft 349 kts 292°
2026-05-03 20:57 -34.22947 -58.72685 16519 ft 352 kts 292°
2026-05-03 20:57 -34.21888 -58.75362 17082 ft 355 kts 292°
2026-05-03 20:58 -34.20824 -58.78058 17663 ft 357 kts 292°
2026-05-03 20:58 -34.19748 -58.80776 18241 ft 360 kts 292°
2026-05-03 20:58 -34.18664 -58.83515 18761 ft 363 kts 292°
2026-05-03 20:58 -34.17572 -58.86270 19257 ft 365 kts 292°
2026-05-03 20:59 -34.16468 -58.89052 19743 ft 369 kts 292°
2026-05-03 20:59 -34.15355 -58.91857 20247 ft 372 kts 292°
2026-05-03 20:59 -34.14238 -58.94675 20747 ft 374 kts 291°
2026-05-03 20:59 -34.13109 -58.97520 21235 ft 377 kts 291°
2026-05-03 21:00 -34.11972 -59.00381 21715 ft 379 kts 291°
2026-05-03 21:00 -34.11200 -59.02318 22032 ft 381 kts 291°
2026-05-03 21:00 -34.09670 -59.06145 22639 ft 384 kts 291°
2026-05-03 21:00 -34.08506 -59.09052 23102 ft 386 kts 291°
2026-05-03 21:01 -34.07335 -59.11979 23555 ft 388 kts 291°
2026-05-03 21:01 -34.06067 -59.14875 23933 ft 394 kts 298°
2026-05-03 21:01 -34.04396 -59.17532 24294 ft 401 kts 305°
2026-05-03 21:01 -34.02602 -59.20111 24644 ft 403 kts 304°
2026-05-03 21:02 -34.00796 -59.22714 25001 ft 406 kts 304°
2026-05-03 21:02 -33.98980 -59.25336 25378 ft 408 kts 304°
2026-05-03 21:02 -33.97158 -59.27963 25735 ft 410 kts 304°
2026-05-03 21:02 -33.95324 -59.30607 26091 ft 412 kts 304°
2026-05-03 21:03 -33.93485 -59.33253 26453 ft 414 kts 304°
2026-05-03 21:03 -33.91633 -59.35914 26822 ft 415 kts 304°
2026-05-03 21:03 -33.89770 -59.38590 27185 ft 417 kts 304°
2026-05-03 21:03 -33.87903 -59.41267 27526 ft 420 kts 304°
2026-05-03 21:04 -33.86021 -59.43965 27863 ft 422 kts 304°
2026-05-03 21:04 -33.84127 -59.46682 28213 ft 425 kts 304°
2026-05-03 21:04 -33.82225 -59.49410 28571 ft 427 kts 304°
2026-05-03 21:04 -33.80310 -59.52152 28907 ft 429 kts 304°
2026-05-03 21:05 -33.78385 -59.54904 29253 ft 431 kts 304°
2026-05-03 21:05 -33.76453 -59.57662 29641 ft 432 kts 303°
2026-05-03 21:05 -33.74520 -59.60412 30128 ft 430 kts 304°
2026-05-03 21:05 -33.72594 -59.63151 30567 ft 428 kts 303°
2026-05-03 21:06 -33.70669 -59.65883 30964 ft 427 kts 303°
2026-05-03 21:06 -33.68753 -59.68605 31367 ft 427 kts 303°
2026-05-03 21:06 -33.66843 -59.71323 31784 ft 426 kts 303°
2026-05-03 21:06 -33.64935 -59.74035 32189 ft 425 kts 303°
2026-05-03 21:07 -33.63032 -59.76738 32608 ft 423 kts 303°
2026-05-03 21:07 -33.61135 -59.79429 33033 ft 422 kts 302°
2026-05-03 21:07 -33.59240 -59.82115 33456 ft 421 kts 302°
2026-05-03 21:07 -33.57349 -59.84794 33894 ft 420 kts 302°
2026-05-03 21:08 -33.55461 -59.87464 34051 ft 421 kts 302°
2026-05-03 21:08 -33.53554 -59.90158 34065 ft 425 kts 302°
2026-05-03 21:08 -33.49716 -59.95573 34068 ft 427 kts 302°
2026-05-03 21:09 -33.45865 -60.00997 34069 ft 427 kts 302°
2026-05-03 21:09 -33.42012 -60.06416 34064 ft 427 kts 302°
2026-05-03 21:10 -33.38158 -60.11826 34051 ft 427 kts 302°
2026-05-03 21:10 -33.34300 -60.17244 34053 ft 428 kts 302°
2026-05-03 21:11 -33.30436 -60.22663 34056 ft 428 kts 303°
2026-05-03 21:11 -33.26572 -60.28069 34062 ft 428 kts 303°
2026-05-03 21:12 -33.22706 -60.33468 34064 ft 428 kts 303°
2026-05-03 21:12 -33.18833 -60.38868 34045 ft 428 kts 303°
2026-05-03 21:13 -33.14953 -60.44273 34052 ft 429 kts 303°
2026-05-03 21:13 -33.11095 -60.49638 34057 ft 429 kts 303°
2026-05-03 21:14 -33.07182 -60.55064 34066 ft 428 kts 303°
2026-05-03 21:14 -33.03302 -60.60447 34050 ft 428 kts 303°
2026-05-03 21:15 -32.99444 -60.65797 34049 ft 428 kts 303°
2026-05-03 21:15 -32.95555 -60.71168 34056 ft 428 kts 303°
2026-05-03 21:16 -32.91663 -60.76534 34049 ft 428 kts 303°
2026-05-03 21:16 -32.88424 -60.82371 34064 ft 418 kts 293°
2026-05-03 21:17 -32.85992 -60.87329 34060 ft 418 kts 293°
2026-05-03 21:17 -32.82559 -60.94241 34055 ft 418 kts 293°
2026-05-03 21:18 -32.79605 -61.00185 34050 ft 417 kts 293°
2026-05-03 21:18 -32.77138 -61.05160 34045 ft 417 kts 294°
2026-05-03 21:19 -32.74195 -61.11093 34046 ft 417 kts 294°
2026-05-03 21:19 -32.71251 -61.17016 34035 ft 416 kts 293°
2026-05-03 21:20 -32.68306 -61.22928 34038 ft 416 kts 294°
2026-05-03 21:20 -32.65353 -61.28846 34031 ft 416 kts 294°
2026-05-03 21:21 -32.62400 -61.34755 34032 ft 416 kts 294°
2026-05-03 21:21 -32.59446 -61.40661 34046 ft 416 kts 294°
2026-05-03 21:22 -32.56487 -61.46545 34042 ft 416 kts 294°
2026-05-03 21:22 -32.53529 -61.52430 34027 ft 415 kts 294°
2026-05-03 21:23 -32.50583 -61.58316 34026 ft 415 kts 294°
2026-05-03 21:23 -32.47628 -61.64194 34028 ft 415 kts 294°
2026-05-03 21:24 -32.44660 -61.70056 34025 ft 415 kts 294°
2026-05-03 21:24 -32.41696 -61.75924 34025 ft 415 kts 294°
2026-05-03 21:25 -32.38729 -61.81789 34000 ft 415 kts 294°
2026-05-03 21:25 -32.35753 -61.87649 34009 ft 416 kts 294°
2026-05-03 21:26 -32.32779 -61.93509 34014 ft 416 kts 294°
2026-05-03 21:26 -32.29803 -61.99368 34025 ft 415 kts 294°
2026-05-03 21:27 -32.26823 -62.05215 34027 ft 415 kts 294°
2026-05-03 21:27 -32.23839 -62.11057 34032 ft 415 kts 294°
2026-05-03 21:28 -32.20864 -62.16891 34017 ft 415 kts 294°
2026-05-03 21:28 -32.17886 -62.22727 34014 ft 415 kts 294°
2026-05-03 21:29 -32.14902 -62.28561 34021 ft 415 kts 294°
2026-05-03 21:29 -32.11918 -62.34383 34030 ft 414 kts 294°
2026-05-03 21:30 -32.08940 -62.40193 34034 ft 414 kts 295°
2026-05-03 21:30 -32.05973 -62.45961 34016 ft 414 kts 295°
2026-05-03 21:31 -32.02980 -62.51759 34023 ft 414 kts 295°
2026-05-03 21:31 -32.01486 -62.54650 33509 ft 414 kts 295°
2026-05-03 21:31 -31.99971 -62.57598 32208 ft 427 kts 295°
2026-05-03 21:32 -31.98421 -62.60612 31401 ft 430 kts 295°
2026-05-03 21:32 -31.96875 -62.63590 30972 ft 423 kts 295°
2026-05-03 21:32 -31.95348 -62.66524 30442 ft 419 kts 295°
2026-05-03 21:32 -31.93832 -62.69440 29879 ft 415 kts 295°
2026-05-03 21:33 -31.92335 -62.72325 29331 ft 410 kts 295°
2026-05-03 21:33 -31.90858 -62.75174 28809 ft 405 kts 295°
2026-05-03 21:33 -31.89402 -62.77985 28279 ft 400 kts 295°
2026-05-03 21:33 -31.87963 -62.80757 27785 ft 395 kts 295°
2026-05-03 21:34 -31.86539 -62.83492 27297 ft 390 kts 295°
2026-05-03 21:34 -31.85128 -62.86203 26795 ft 386 kts 295°
2026-05-03 21:34 -31.83733 -62.88883 26307 ft 383 kts 296°
2026-05-03 21:34 -31.82349 -62.91539 25831 ft 379 kts 296°
2026-05-03 21:35 -31.80975 -62.94171 25359 ft 377 kts 296°
2026-05-03 21:35 -31.79612 -62.96784 24901 ft 374 kts 296°
2026-05-03 21:35 -31.78255 -62.99382 24451 ft 372 kts 296°
2026-05-03 21:35 -31.76909 -63.01964 24012 ft 369 kts 296°
2026-05-03 21:36 -31.75572 -63.04535 23590 ft 367 kts 296°
2026-05-03 21:36 -31.74246 -63.07082 23118 ft 364 kts 296°
2026-05-03 21:36 -31.72928 -63.09603 22698 ft 360 kts 296°
2026-05-03 21:36 -31.71624 -63.12088 22285 ft 355 kts 296°
2026-05-03 21:37 -31.70332 -63.14543 21875 ft 351 kts 296°
2026-05-03 21:37 -31.69057 -63.16965 21464 ft 347 kts 296°
2026-05-03 21:37 -31.67795 -63.19367 21012 ft 344 kts 296°
2026-05-03 21:37 -31.66550 -63.21752 20567 ft 342 kts 296°
2026-05-03 21:38 -31.65370 -63.24160 20113 ft 339 kts 294°
2026-05-03 21:38 -31.64249 -63.26588 19657 ft 337 kts 294°
2026-05-03 21:38 -31.63156 -63.29017 19195 ft 336 kts 294°
2026-05-03 21:38 -31.62070 -63.31443 18718 ft 336 kts 294°
2026-05-03 21:39 -31.60977 -63.33864 18255 ft 335 kts 294°
2026-05-03 21:39 -31.59878 -63.36271 17746 ft 334 kts 295°
2026-05-03 21:39 -31.58774 -63.38664 17268 ft 332 kts 295°
2026-05-03 21:39 -31.57672 -63.41041 16794 ft 331 kts 295°
2026-05-03 21:40 -31.56576 -63.43403 16320 ft 330 kts 295°
2026-05-03 21:40 -31.55480 -63.45766 15837 ft 329 kts 295°
2026-05-03 21:40 -31.54387 -63.48124 15367 ft 329 kts 295°
2026-05-03 21:40 -31.53295 -63.50478 14885 ft 329 kts 296°
2026-05-03 21:41 -31.52196 -63.52843 14407 ft 330 kts 296°
2026-05-03 21:41 -31.51099 -63.55204 13924 ft 330 kts 296°
2026-05-03 21:41 -31.50000 -63.57569 13400 ft 331 kts 296°
2026-05-03 21:41 -31.48900 -63.59935 12907 ft 330 kts 296°
2026-05-03 21:42 -31.47803 -63.62288 12415 ft 329 kts 296°
2026-05-03 21:42 -31.46707 -63.64636 11937 ft 328 kts 297°
2026-05-03 21:42 -31.45615 -63.66978 11511 ft 326 kts 297°
2026-05-03 21:42 -31.44556 -63.69254 11383 ft 307 kts 295°
2026-05-03 21:43 -31.43786 -63.71476 11263 ft 283 kts 283°
2026-05-03 21:43 -31.43713 -63.73667 11141 ft 261 kts 256°
2026-05-03 21:43 -31.44510 -63.75507 11014 ft 253 kts 229°
2026-05-03 21:43 -31.45963 -63.76612 10906 ft 252 kts 201°
2026-05-03 21:44 -31.47664 -63.77043 10784 ft 247 kts 193°
2026-05-03 21:44 -31.49348 -63.77357 10582 ft 244 kts 192°
2026-05-03 21:44 -31.51020 -63.77674 10322 ft 243 kts 192°
2026-05-03 21:44 -31.52687 -63.77990 10064 ft 242 kts 192°
2026-05-03 21:45 -31.54348 -63.78304 9783 ft 242 kts 192°
2026-05-03 21:45 -31.55991 -63.78693 9474 ft 238 kts 206°
2026-05-03 21:45 -31.57340 -63.79672 9336 ft 222 kts 230°
2026-05-03 21:45 -31.58164 -63.81112 9202 ft 208 kts 252°
2026-05-03 21:46 -31.58416 -63.82731 9024 ft 200 kts 274°
2026-05-03 21:46 -31.58130 -63.84281 8843 ft 193 kts 295°
2026-05-03 21:46 -31.57399 -63.85582 8614 ft 190 kts 310°
2026-05-03 21:46 -31.56541 -63.86765 8359 ft 189 kts 310°
2026-05-03 21:47 -31.55697 -63.87936 8146 ft 187 kts 311°
2026-05-03 21:47 -31.54849 -63.89112 7837 ft 191 kts 311°
2026-05-03 21:47 -31.53996 -63.90301 7585 ft 190 kts 311°
2026-05-03 21:47 -31.53147 -63.91483 7381 ft 187 kts 311°
2026-05-03 21:48 -31.52311 -63.92644 7141 ft 186 kts 312°
2026-05-03 21:48 -31.51478 -63.93800 6914 ft 185 kts 312°
2026-05-03 21:48 -31.50653 -63.94946 6707 ft 183 kts 313°
2026-05-03 21:48 -31.49835 -63.96078 6493 ft 181 kts 313°
2026-05-03 21:49 -31.49020 -63.97205 6257 ft 181 kts 313°
2026-05-03 21:49 -31.48212 -63.98324 5999 ft 179 kts 314°
2026-05-03 21:49 -31.47410 -63.99437 5750 ft 178 kts 313°
2026-05-03 21:49 -31.46618 -64.00535 5518 ft 175 kts 313°
2026-05-03 21:50 -31.45835 -64.01621 5284 ft 174 kts 314°
2026-05-03 21:50 -31.45069 -64.02684 5149 ft 167 kts 314°
2026-05-03 21:50 -31.44344 -64.03718 5081 ft 163 kts 309°
2026-05-03 21:50 -31.43806 -64.04898 5016 ft 166 kts 297°
2026-05-03 21:51 -31.43526 -64.06226 5014 ft 172 kts 282°
2026-05-03 21:51 -31.43495 -64.07648 5009 ft 176 kts 275°
2026-05-03 21:51 -31.43496 -64.09077 5005 ft 176 kts 275°
2026-05-03 21:51 -31.43493 -64.10532 4698 ft 181 kts 275°
2026-05-03 21:52 -31.43492 -64.12012 4367 ft 180 kts 276°
2026-05-03 21:52 -31.43490 -64.13472 4203 ft 180 kts 275°
2026-05-03 21:52 -31.43466 -64.14928 4090 ft 178 kts 283°
2026-05-03 21:52 -31.43066 -64.16262 4004 ft 172 kts 307°
2026-05-03 21:53 -31.42271 -64.17278 3764 ft 168 kts 328°
2026-05-03 21:53 -31.41281 -64.17974 3519 ft 166 kts 333°
2026-05-03 21:53 -31.40293 -64.18659 3269 ft 165 kts 334°
2026-05-03 21:53 -31.39330 -64.19329 3045 ft 156 kts 334°
2026-05-03 21:54 -31.38440 -64.19952 2821 ft 143 kts 335°
2026-05-03 21:54 -31.37595 -64.20516 2600 ft 136 kts 343°
2026-05-03 21:54 -31.36693 -64.20742 2414 ft 133 kts
2026-05-03 21:54 -31.35770 -64.20743 2242 ft 130 kts
2026-05-03 21:55 -31.34834 -64.20764 2091 ft 136 kts
2026-05-03 21:55 -31.33879 -64.20789 1950 ft 138 kts
2026-05-03 21:55 -31.32935 -64.20802 1792 ft 133 kts
2026-05-03 21:55 -31.32013 -64.20822 1621 ft 128 kts
2026-05-03 21:56 -31.31298 -64.20830 1619 ft 64 kts
2026-05-03 21:56 -31.31046 -64.20824 1614 ft 17 kts 319°
2026-05-03 21:56 -31.31083 -64.20833 1619 ft 12 kts 155°
2026-05-03 21:56 -31.31179 -64.20836 1618 ft 17 kts 180°
2026-05-03 21:57 -31.31314 -64.20836 1613 ft 21 kts 179°
2026-05-03 21:57 -31.31448 -64.20853 1618 ft 14 kts 220°
2026-05-03 21:57 -31.31466 -64.20952 1613 ft 12 kts 270°
2026-05-03 21:57 -31.31466 -64.20975 1613 ft 0 kts 269°
2026-05-03 22:00 -31.31466 -64.20976 1613 ft 1 kts 269°
2026-05-03 22:00 -31.31467 -64.20998 1616 ft 5 kts 266°
2026-05-03 22:00 -31.31488 -64.21048 1623 ft 8 kts 232°
2026-05-03 22:00 -31.31540 -64.21082 1623 ft 8 kts 203°
2026-05-03 22:01 -31.31559 -64.21098 1618 ft 1 kts 227°
2026-05-03 22:01 -31.31559 -64.21104 1616 ft 1 kts 266°
2026-05-03 22:01 -31.31549 -64.21116 1616 ft 4 kts 307°
2026-05-03 22:01 -31.31548 -64.21152 1617 ft 5 kts 255°
2026-05-03 22:02 -31.31552 -64.21171 1613 ft 0 kts 256°